Location: Unspecified
(0.0000°N, 0.0000°E)
Time: 00:44:17
(UTC+00:00)

Vanguard 3 - Visible Passes

Search period start: 21 July 2017 00:00
Search period end: 31 July 2017 00:00
Orbit: 508 x 3265 km, 33.3° (Epoch: 19 July)

Date Brightness Start Highest point End Pass type
(mag) Time Alt. Az. Time Alt. Az. Time Alt. Az.
21 Jul 7.2 05:04:09 22° W 05:06:42 40° NW 05:10:15 10° NNE visible
21 Jul 10.8 18:23:41 10° W 18:40:16 41° SSW 18:57:52 10° SE visible
21 Jul 10.9 20:48:52 10° WSW 21:00:41 18° SSW 21:05:00 17° S visible
22 Jul 7.7 03:54:47 47° E 03:54:47 47° E 03:57:42 10° ENE visible
22 Jul 11.0 19:27:22 10° WSW 19:42:17 26° SSW 19:55:27 12° SSE visible
22 Jul 11.2 21:56:41 10° SSW 22:00:02 12° SSW 22:00:02 12° SSW visible
23 Jul 7.8 04:50:00 25° WNW 04:51:28 29° NW 04:54:59 10° NNE visible
23 Jul 10.9 18:08:31 10° W 18:24:07 37° SSW 18:41:25 10° SSE visible
23 Jul 11.0 20:33:52 10° SW 20:45:20 18° SSW 20:50:28 16° S visible
24 Jul 8.4 03:40:35 33° NE 03:40:35 33° NE 03:42:50 10° NE visible
24 Jul 11.1 19:12:30 10° WSW 19:26:33 24° SSW 19:40:25 10° SSE visible
24 Jul 11.2 21:40:29 10° SSW 21:45:27 14° SSW 21:45:27 14° SSW visible
25 Jul 8.3 04:35:46 23° NW 04:36:10 23° NW 04:39:37 10° NNE visible
25 Jul 11.0 20:18:49 10° SW 20:30:04 17° S 20:35:50 15° S visible
26 Jul 9.1 03:26:19 22° NE 03:26:19 22° NE 03:27:51 10° NE visible
26 Jul 11.1 18:57:48 10° WSW 19:10:59 22° SSW 19:24:21 10° SSE visible
26 Jul 11.1 21:24:06 10° SSW 21:30:47 15° S 21:30:47 15° S visible
27 Jul 8.8 04:21:27 18° NW 04:21:27 18° NW 04:24:10 10° N visible
27 Jul 11.0 20:03:38 10° SW 20:14:52 17° S 20:21:09 14° SSE visible
27 Jul 11.4 22:25:44 10° SSW 22:25:44 10° SSW 22:25:44 10° SSW visible
28 Jul 9.6 03:11:57 16° NNE 03:11:57 16° NNE 03:12:47 10° NE visible
28 Jul 11.1 18:43:12 10° SW 18:55:32 20° SSW 19:08:20 10° SSE visible
28 Jul 11.0 21:07:35 10° SSW 21:16:06 17° S 21:16:06 17° S visible
29 Jul 9.2 04:07:01 14° NNW 04:07:01 14° NNW 04:08:35 10° N visible
29 Jul 11.0 19:48:17 10° SW 19:59:41 17° S 20:06:29 14° SSE visible
29 Jul 11.3 22:08:33 10° SSW 22:11:04 14° SSW 22:11:04 14° SSW visible
30 Jul 10.0 02:57:28 11° NNE 02:57:28 11° NNE 02:57:38 10° NNE visible
30 Jul 11.1 18:28:39 10° SW 18:40:13 19° S 18:52:26 10° SSE visible
30 Jul 10.9 20:50:59 10° SSW 21:01:27 19° S 21:01:27 19° S visible
